Weather History for Thermal, CA

Change the Weather History Date:

Wednesday, February 13, 2013

  Actual Average Record
Temperature  
Mean Temperature 51 °F 58 °F  
Max Temperature 73 °F 74 °F 94 °F (1957)
Min Temperature 29 °F 41 °F 25 °F (2004)
Degree Days  
Heating Degree Days 14 8  
Month to date heating degree days 113 111  
Since 1 July heating degree days 940 971  
Cooling Degree Days 0 0  
Month to date cooling degree days 0 0  
Year to date cooling degree days 0 2  
Moisture  
Dew Point 24 °F    
Average Humidity 44    
Maximum Humidity 72    
Minimum Humidity 15    
Precipitation  
Precipitation 0.00 in 0.02 in 0.59 in (1980)
Month to date precipitation T 0.27  
Year to date precipitation 0.37 0.94  
Since 1 July precipitation 2.55 2.32  
Snow  
Snow 0.00 in - - ()
Month to date snowfall 0.0  
Year to date snowfall 0.0  
Since 1 July snowfall 0.0  
Snow Depth 0.00 in    
Sea Level Pressure  
Sea Level Pressure 30.17 in    
Wind  
Wind Speed 3 mph (SE)    
Max Wind Speed 12 mph    
Max Gust Speed 16 mph    
Visibility 10 miles    
Events      
T = Trace of Precipitation, MM = Missing Value Source: NWS Daily Summary

Daily Weather History Graph

Daily Weather History Graph

Search for Another Location

Airport:

Trip Planner

Search our weather history database for the weather conditions in past years. The results will help you decide how hot, cold, wet, or windy it might be!

Date:

Astronomy

Feb. 13, 2013 Rise Set
Actual Time 6:30 AM PST 5:27 PM PST
Civil Twilight 6:04 AM PST 5:53 PM PST
Nautical Twilight 5:35 AM PST 6:22 PM PST
Astronomical Twilight 5:06 AM PST 6:51 PM PST
Moon 8:15 AM PST (2/13) 9:19 PM PST (2/13)
Length of Visible Light 11h 48m
Length of Day
10h 57m
Waxing Crescent, 14% of the Moon is Illuminated
Feb 13
Waxing Crescent
Feb 17
First Quarter
Feb 25
Full
Mar 4
Last Quarter
Mar 11
New

Hourly Weather History & Observations

Time (PST) Temp. Windchill Dew Point Humidity Pressure Visibility Wind Dir Wind Speed Gust Speed Precip Events Conditions
12:52 AM 37.9 °F 35.5 °F 25.0 °F 60% 30.24 in 10.0 mi North 3.5 mph - N/A   Clear
1:52 AM 37.0 °F 34.5 °F 24.1 °F 59% 30.23 in 10.0 mi North 3.5 mph - N/A   Clear
2:52 AM 36.0 °F - 24.1 °F 62% 30.21 in 10.0 mi Calm Calm - N/A   Clear
3:52 AM 32.0 °F - 24.1 °F 73% 30.21 in 10.0 mi Calm Calm - N/A   Clear
4:52 AM 30.0 °F - 21.9 °F 72% 30.21 in 10.0 mi Calm Calm - N/A   Clear
5:52 AM 30.9 °F - 21.9 °F 69% 30.21 in 10.0 mi Calm Calm - N/A   Clear
6:52 AM 32.0 °F 28.7 °F 21.9 °F 66% 30.23 in 10.0 mi NNE 3.5 mph - N/A   Clear
7:52 AM 43.0 °F 41.3 °F 27.0 °F 53% 30.25 in 10.0 mi WSW 3.5 mph - N/A   Clear
8:52 AM 53.1 °F - 27.0 °F 37% 30.24 in 10.0 mi Calm Calm - N/A   Clear
9:52 AM 60.1 °F - 26.1 °F 27% 30.24 in 10.0 mi Calm Calm - N/A   Clear
10:52 AM 64.9 °F - 24.1 °F 21% 30.22 in 10.0 mi SE 4.6 mph - N/A   Clear
11:52 AM 69.1 °F - 21.0 °F 16% 30.18 in 10.0 mi Variable 3.5 mph - N/A   Clear
12:52 PM 71.1 °F - 21.9 °F 16% 30.14 in 10.0 mi SSE 4.6 mph - N/A   Clear
1:52 PM 71.1 °F - 21.0 °F 15% 30.11 in 10.0 mi South 6.9 mph - N/A   Clear
2:52 PM 71.1 °F - 21.9 °F 16% 30.10 in 10.0 mi SE 9.2 mph - N/A   Clear
3:52 PM 70.0 °F - 25.0 °F 18% 30.09 in 10.0 mi SSE 8.1 mph - N/A   Clear
4:52 PM 66.0 °F - 23.0 °F 20% 30.08 in 10.0 mi SE 6.9 mph - N/A   Clear
5:52 PM 57.9 °F - 25.0 °F 28% 30.09 in 10.0 mi South 4.6 mph - N/A   Clear
6:52 PM 51.1 °F - 24.1 °F 35% 30.10 in 10.0 mi Calm Calm - N/A   Clear
7:52 PM 48.0 °F - 26.1 °F 42% 30.11 in 10.0 mi North 3.5 mph - N/A   Clear
8:52 PM 46.0 °F 43.9 °F 28.0 °F 50% 30.12 in 10.0 mi NNW 4.6 mph - N/A   Clear
9:52 PM 46.9 °F - 28.0 °F 48% 30.12 in 10.0 mi North 4.6 mph - N/A   Clear
10:52 PM 39.9 °F 37.8 °F 25.0 °F 55% 30.13 in 10.0 mi WSW 3.5 mph - N/A   Clear
11:52 PM 46.0 °F - 28.0 °F 50% 30.13 in 10.0 mi Calm Calm - N/A   Clear